Regional Weather Roundup
Issued by NWS

Home | Current Version | Previous Version | Graphics & Text | Print | Product List | Glossary On
Versions: 1 2 3 4 5 6 7 8 9 10 11 12 13 14 15 16 17 18 19 20 21 22 23 24 25 26 27 28 29 30 31 32 33 34 35 36 37 38 39 40 41 42 43 44 45 46 47 48 49 50
000
ASUS43 KFSD 020102
RWRSD

WEATHER ROUNDUP FOR SOUTH DAKOTA
NATIONAL WEATHER SERVICE SIOUX FALLS SD
800 PM CDT WED OCT 01 2014

NOTE: "FAIR" INDICATES FEW OR NO CLOUDS BELOW 12,000 FEET WITH NO
SIGNIFICANT WEATHER AND/OR OBSTRUCTIONS TO VISIBILITY.


SDZ001>005-009-010-012>017-020200-
NORTHWEST AND NORTH CENTRAL SOUTH DAKOTA

CITY           SKY/WX    TMP DP  RH WIND       PRES   REMARKS
BUFFALO          N/A     51  42  71 NW7       29.85R
FAITH            N/A     51  44  77 NW8       29.89R
MOBRIDGE       MOCLDY    57  48  72 W8        29.83R
$$

SDZ012>016-024>037-041>051-057-063-072>074-020200-
SOUTHWEST AND SOUTH CENTRAL SOUTH DAKOTA

CITY           SKY/WX    TMP DP  RH WIND       PRES   REMARKS
RAPID CTY ARPT CLOUDY    52  41  66 N10       29.94R
PIERRE         MOCLDY    57  46  66 NW10      29.86R
CUSTER         LGT RAIN  43  39  86 CALM      29.98R
ELLSWORTH AFB  PTCLDY    53  42  65 NW10      29.94R
PHILIP         CLOUDY    56  45  66 NW9       29.90R
PINE RIDGE     CLOUDY    49  46  90 N6        29.95R
WINNER         MOCLDY    61  47  59 N10       29.85R
$$

SDZ004>011-016>023-039-040-020200-
NORTHEAST SOUTH DAKOTA

CITY           SKY/WX    TMP DP  RH WIND       PRES   REMARKS
ABERDEEN       PTCLDY    58  48  69 W8        29.82R
WATERTOWN      PTCLDY    58  50  75 NW7       29.80R
SISSETON         N/A     57  49  74 W6        29.78R
$$

SDZ017-020-022-023-036>040-048>070-020200-
SOUTHEAST SOUTH DAKOTA

CITY           SKY/WX    TMP DP  RH WIND       PRES   REMARKS
SIOUX FALLS    PTCLDY    61  53  75 CALM      29.79R
HURON          PTCLDY    62  48  60 N13       29.81R
CHAMBERLAIN    PTCLDY    62  48  60 N12       29.85R
MITCHELL       PTCLDY    62  50  64 NW7       29.80R
YANKTON        PTCLDY    64  52  63 NW7       29.78R
$$

ABBREVIATIONS USED IN REMARKS
   TC - TEMPERATURE IN CELSIUS
  WCI - WIND CHILL INDEX
   HX - HEAT INDEX
  VSB - VISIBILITY



USA.gov is the U.S. government's official web portal to all federal, state and local government web resources and services.